Weather History for KDVN - January, 2012

Change the Weather History Date:

Friday, January 13, 2012

  Actual Average Record
Temperature  
Mean Temperature 11 °F 21 °F  
Max Temperature 18 °F 30 °F 56 °F (1961)
Min Temperature 4 °F 12 °F -8 °F (1963)
Degree Days  
Heating Degree Days 54 44  
Month to date heating degree days 453 571  
Since 1 July heating degree days 2687 3151  
Cooling Degree Days 0 0  
Month to date cooling degree days 0 0  
Year to date cooling degree days 0 0  
Moisture  
Dew Point 8 °F    
Average Humidity 74    
Maximum Humidity 80    
Minimum Humidity 67    
Precipitation  
Precipitation T in 0.01 in 1.20 in (1979)
Month to date precipitation 0.34 0.28  
Year to date precipitation 0.34 0.28  
Snow  
Snow 0.20 in - - ()
Month to date snowfall 5.4  
Since 1 July snowfall 7.2  
Snow Depth 4.00 in    
Sea Level Pressure  
Sea Level Pressure 29.96 in    
Wind  
Wind Speed 14 mph (WNW)    
Max Wind Speed 22 mph    
Max Gust Speed 26 mph    
Visibility 6 miles    
Events Snow    
T = Trace of Precipitation, MM = Missing Value Source: NWS Daily Summary

Daily Weather History Graph

Daily Weather History Graph

Search for Another Location

Airport or City:

Trip Planner

Search our weather history database for the weather conditions in past years. The results will help you decide how hot, cold, wet, or windy it might be!

Date:

Astronomy

Jan. 13, 2012 Rise Set
Actual Time 7:27 AM CST 4:54 PM CST
Civil Twilight 6:57 AM CST 5:25 PM CST
Nautical Twilight 6:22 AM CST 5:59 PM CST
Astronomical Twilight 5:49 AM CST 6:32 PM CST
Moon 10:12 PM CST (1/13) 9:37 AM CST (1/13)
Length of Visible Light 10h 28m
Length of Day
9h 26m
Waning Gibbous, 78% of the Moon is Illuminated
Jan 13
Waning Gibbous
Jan 16
Last Quarter
Jan 23
New
Jan 30
First Quarter
Feb 7
Full

Hourly Weather History & Observations

Time (CST) Temp. Windchill Dew Point Humidity Pressure Visibility Wind Dir Wind Speed Gust Speed Precip Events Conditions
12:52 AM 12.0 °F -5.1 °F 7.0 °F 80% 29.80 in 2.5 mi WNW 17.3 mph - 0.00 in Snow Light Snow
12:59 AM 12.2 °F -5.8 °F 6.8 °F 79% 29.76 in 4.0 mi WNW 19.6 mph - 0.00 in Snow Light Snow
1:37 AM 12.2 °F -5.3 °F 6.8 °F 79% 29.77 in 4.0 mi WNW 18.4 mph - 0.00 in   Haze
1:52 AM 12.9 °F -5.3 °F 7.0 °F 77% 29.82 in 6.0 mi WNW 20.7 mph - 0.00 in   Haze
2:26 AM 12.2 °F -5.8 °F 6.8 °F 79% 29.79 in 3.0 mi WNW 19.6 mph - 0.00 in Snow Light Snow
2:52 AM 12.9 °F -3.9 °F 7.0 °F 77% 29.85 in 6.0 mi WNW 17.3 mph - 0.00 in   Haze
3:52 AM 12.0 °F -4.0 °F 7.0 °F 80% 29.85 in 5.0 mi WNW 15.0 mph - N/A   Haze
3:59 AM 12.2 °F -4.3 °F 6.8 °F 79% 29.81 in 3.0 mi WNW 16.1 mph - 0.00 in Snow Light Snow
4:52 AM 12.0 °F -2.7 °F 6.1 °F 77% 29.87 in 10.0 mi WNW 12.7 mph - 0.00 in   Overcast
5:03 AM 12.2 °F -2.5 °F 6.8 °F 79% 29.83 in 10.0 mi WNW 12.7 mph - N/A   Overcast
5:52 AM 14.0 °F -1.4 °F 7.0 °F 74% 29.90 in 10.0 mi WNW 15.0 mph - N/A   Overcast
6:02 AM 15.8 °F 0.9 °F 8.6 °F 73% 29.86 in 10.0 mi WNW 15.0 mph - N/A   Overcast
6:52 AM 15.1 °F -0.6 °F 9.0 °F 77% 29.91 in 10.0 mi WNW 16.1 mph - N/A   Overcast
7:52 AM 15.1 °F -0.6 °F 9.0 °F 77% 29.94 in 10.0 mi WNW 16.1 mph - N/A   Overcast
9:25 AM 15.8 °F 0.3 °F 8.6 °F 73% 29.94 in 6.0 mi WNW 16.1 mph 23.0 mph 0.00 in Snow Light Snow
9:52 AM 16.0 °F 1.7 °F 9.0 °F 74% 30.00 in 4.0 mi WNW 13.8 mph - 0.00 in Snow Light Snow
10:52 AM 17.1 °F 1.5 °F 9.0 °F 71% 30.01 in 7.0 mi WNW 17.3 mph - 0.00 in Snow Light Snow
11:22 AM 17.6 °F 1.7 °F 10.4 °F 73% 29.97 in 8.0 mi WNW 18.4 mph - 0.00 in   Overcast
11:52 AM 18.0 °F 2.6 °F 10.0 °F 71% 30.00 in 6.0 mi WNW 17.3 mph - 0.00 in   Haze
12:33 PM 17.6 °F 2.2 °F 10.4 °F 73% 29.96 in 1.8 mi West 17.3 mph - 0.00 in Snow Light Snow
12:45 PM 17.6 °F 2.7 °F 10.4 °F 73% 29.96 in 1.2 mi West 16.1 mph - 0.00 in Snow Light Snow
12:52 PM 17.1 °F 2.0 °F 10.9 °F 77% 30.01 in 1.2 mi West 16.1 mph - 0.00 in Snow Light Snow
1:16 PM 17.6 °F 2.7 °F 10.4 °F 73% 29.96 in 3.0 mi WNW 16.1 mph - 0.00 in Snow Light Snow
1:52 PM 17.1 °F 1.5 °F 10.0 °F 74% 30.01 in 4.0 mi West 17.3 mph - 0.00 in Snow Light Snow
2:52 PM 17.1 °F 1.5 °F 9.0 °F 71% 30.03 in 5.0 mi West 17.3 mph - 0.00 in Snow Light Snow
3:52 PM 16.0 °F 0.6 °F 7.0 °F 68% 30.06 in 8.0 mi West 16.1 mph - 0.00 in Snow Light Snow
4:52 PM 15.1 °F 0.5 °F 8.1 °F 74% 30.08 in 1.8 mi West 13.8 mph - 0.00 in Snow Light Snow
4:59 PM 15.8 °F 2.1 °F 8.6 °F 73% 30.03 in 3.0 mi WNW 12.7 mph - 0.00 in Snow Light Snow
5:52 PM 15.1 °F 3.3 °F 8.1 °F 74% 30.09 in 10.0 mi WNW 9.2 mph - 0.00 in   Overcast
6:52 PM 15.1 °F 3.3 °F 8.1 °F 74% 30.10 in 10.0 mi West 9.2 mph - N/A   Overcast
7:52 PM 15.1 °F 4.2 °F 8.1 °F 74% 30.11 in 10.0 mi West 8.1 mph - N/A   Overcast
9:52 PM 12.0 °F -1.3 °F 6.1 °F 77% 30.12 in 10.0 mi WSW 10.4 mph - 0.00 in   Overcast
10:12 PM 10.4 °F -1.5 °F 3.2 °F 73% 30.07 in 10.0 mi WSW 8.1 mph - N/A   Scattered Clouds
10:52 PM 7.0 °F -1.7 °F 1.9 °F 80% 30.12 in 10.0 mi WSW 4.6 mph - N/A   Clear
11:52 PM 8.1 °F - 1.9 °F 76% 30.09 in 10.0 mi Calm Calm - N/A   Clear